Location: Harwich
(41.7160°N, 69.9939°W)
Time: 13:30:23
(UTC+02:00)

Courier 1B Rocket - Pass Details

Date: 22 February 2024
Orbit: 920 x 1201 km, 28.2° (Epoch: 23 April)

Event Time Altitude Azimuth Distance (km) Brightness Sun altitude
Exits shadow 10:21:12 19° 195° (SSW) 2,050 6.5 -24.0°
Maximum altitude 10:23:05 22° 171° (S) 1,924 6.5 -23.7°
Drops below altitude 10° 10:27:45 10° 123° (ESE) 2,662 7.9 -22.8°
Sets 10:31:03 0° 109° (ESE) 3,646 9.1 -22.2°
